FENGYUN 1C DEB

Satellite information

Favourite Embed

Satellite Type and Status

DEBRISIN ORBIT

Key statistics

Satellite FENGYUN 1C DEB at a glance.

Uptime

9663

Days in orbit

Revolutions

≈ 14.1

Per day

Orbit

SSO

Sun Synchronous Orbit

Inclination

99.2

Latest

Satellite identification and parameters

Extended collection of information and parameters for FENGYUN 1C DEB.

Object identification

Identified? True

Debris? True

Object name: FENGYUN 1C DEB

International designator: 1999-025UD

Object number (NORAD): 30172

Object ID (CCSDS): 30172

Country: PEOPLES REPUBLIC OF CHINA (PRC)

Current information (Y/N): Y

RCS size: SMALL

Orbital parameters

Period: 101.979 minutes

Inclination: 99.2284 deg

SMA: 7230.494 km

Apoapsis: 904.141 km

Periapsis: 800.578 km

RAAN: 272.2681 deg

Eccentricy: 0.0071616

Argument of periapsis: 348.411 deg

Mean anomaly: 97.4107 deg

Mean motion: 14.12052257 rev/day

Mean motion (dot): 0.00004989 rev/day2

B* drag term: 0.0026814 1/REarth

Two-line elements (TLE)

Creation date: Oct. 22, 2025, 12:16 a.m.

Reference frame: TEME

Reference center: EARTH

Epoch: Oct. 21, 2025, 5:43 p.m. UTC

TLE line 0: 0 FENGYUN 1C DEB

TLE line 1: 1 30172U 99025UD 25294.73867501 .00004989 00000-0 26814-2 0 9990

TLE line 2: 2 30172 99.2284 272.2681 0071616 348.4110 97.4107 14.12052257957838

Live tracking on map

Real-time ground track for satellite FENGYUN 1C DEB.

In-orbit conjunctions

A list of the most updated potential collisions computed for object FENGYUN 1C DEB.

Target Orbit TCA Probability of collision Miss distance Type
CZ-6A DEB LEO 2025-07-25 15:21:22 0.0001146752 295.0 (m) DEBRIS
CZ-6A DEB LEO 2025-04-27 09:10:05 0.0001126979 207.0 (m) DEBRIS
METEOR 1-5 DEB LEO 2024-11-07 08:58:03 0.000322281 57.0 (m) DEBRIS

Associated space launch

Chinese polar orbiting meteorological satellite

FENGYUN 1C DEB was lifted into orbit during the mission ‘Long March 4B | Feng Yun 1C’, on board a Long March 4B space rocket.

The launch took place on May 10, 1999, 1:33 a.m. from Launch Complex 7.

For more information about the launch, click the button.

Launch to space Long March 4B | Feng Yun 1C
Long March 4B | Feng Yun 1C

Agency: N/A

Status: Launch Successful

Launch date: May 10, 1999, 1:33 a.m. UTC

Rocket: Long March 4B

Launch pad: Launch Complex 7

Location: Taiyuan Satellite Launch Center, People's Republic of China

...

Latest news about this satellite

There are no fresh news available about this satellite. Check back as we update our databases every day.


Newsletter sign-up

Weekly statistics, charts and insights to help you stay on top of the space industry.